Вернуться в каталог

USA 170

АктивенВоенныеGEO
NORAD 27875·PAYLOAD·🇺🇸 United States

Запущен Aug 29, 2003 с Cape Canaveral Space Force Station

Loading…

TLE

СвежийSource: Space-Track

Эпоха: Sep 14, 2026, 13:55 UTC

1 27875U 03040A   26257.57986770  .00000119  00000-0  00000+0 0  9997
2 27875  10.6864  47.0748 0001507 158.9126  20.4350  1.00270982 33897

Отслеживайте USA 170 в реальном времени с AllMySat

Download on the App Store